When you browse on this site, cookies collect data to enhance your experience and personalize the content and advertising you see.
Visit our Privacy Policy to learn more. By continuing to use the site, you agree to this use of cookies and data.
  • In United Kingdom
  • List of Countries
  • For 7 days
  • Water Temperature
  • Weather Map
  • Weather Widgets
  • user-avatar
    Login

    Hourly Weather Toledo

    Today, 11 December, Wednesday

    Time Temperature Precipitation Wind Pressure Humidity
    00:00 -8°C° 0 mm 4 mps 752 mmHg 47%
    01:00 -8°C° 0 mm 5 mps 752 mmHg 45%
    02:00 -9°C° 0 mm 6 mps 752 mmHg 43%
    03:00 -9°C° 0 mm 6 mps 751 mmHg 41%
    04:00 -9°C° 0 mm 6 mps 752 mmHg 45%
    05:00 -9°C° 0 mm 7 mps 752 mmHg 49%
    06:00 -10°C° 0 mm 6 mps 753 mmHg 53%
    07:00 -10°C° 0 mm 6 mps 753 mmHg 51%
    08:00 -9°C° 0 mm 7 mps 752 mmHg 48%
    09:00 -10°C° 0 mm 8 mps 752 mmHg 46%
    10:00 -10°C° 0 mm 8 mps 753 mmHg 47%
    11:00 -8°C° 0 mm 8 mps 753 mmHg 49%
    12:00 -8°C° 0 mm 8 mps 754 mmHg 50%
    13:00 -8°C° 0 mm 8 mps 754 mmHg 51%
    14:00 -8°C° 0 mm 7 mps 755 mmHg 52%
    15:00 -8°C° 0 mm 7 mps 756 mmHg 53%
    16:00 -8°C° 0 mm 6 mps 756 mmHg 53%
    17:00 -7°C° 0 mm 5 mps 757 mmHg 53%
    18:00 -8°C° 0 mm 4 mps 758 mmHg 54%
    19:00 -8°C° 0 mm 4 mps 758 mmHg 54%
    20:00 -7°C° 0 mm 3 mps 758 mmHg 54%
    21:00 -6°C° 0 mm 2 mps 759 mmHg 54%
    22:00 -6°C° 0 mm 2 mps 759 mmHg 53%
    23:00 -4°C° 0 mm 1 mps 759 mmHg 53%

    Tomorrow, 12 December, Thursday

    Time Temperature Precipitation Wind Pressure Humidity
    00:00 -4°C° 0 mm 1 mps 759 mmHg 53%
    01:00 -4°C° 0 mm 1 mps 759 mmHg 53%
    02:00 -6°C° 0 mm 2 mps 759 mmHg 54%
    03:00 -6°C° 0 mm 2 mps 758 mmHg 55%
    04:00 -7°C° 0 mm 3 mps 758 mmHg 56%
    05:00 -7°C° 0 mm 3 mps 759 mmHg 58%
    06:00 -8°C° 0 mm 4 mps 759 mmHg 59%
    07:00 -7°C° 0 mm 4 mps 758 mmHg 60%
    08:00 -7°C° 0 mm 4 mps 758 mmHg 60%
    09:00 -6°C° 0 mm 5 mps 758 mmHg 61%
    10:00 -5°C° 0 mm 5 mps 757 mmHg 59%
    11:00 -2°C° 0 mm 5 mps 756 mmHg 58%
    12:00 -2°C° 0 mm 6 mps 755 mmHg 56%
    13:00 -2°C° 0 mm 6 mps 754 mmHg 58%
    14:00 0°C° 0 mm 5 mps 753 mmHg 61%
    15:00 0°C° 0 mm 5 mps 752 mmHg 63%
    16:00 0°C° 0 mm 5 mps 752 mmHg 65%
    17:00 -2°C° 0 mm 6 mps 752 mmHg 67%
    18:00 -2°C° 0 mm 6 mps 752 mmHg 69%
    19:00 -2°C° 0 mm 6 mps 751 mmHg 70%
    20:00 -2°C° 0 mm 6 mps 751 mmHg 71%
    21:00 -2°C° 0 mm 6 mps 750 mmHg 72%
    22:00 -2°C° 0 mm 6 mps 750 mmHg 75%
    23:00 -1°C° 0 mm 5 mps 750 mmHg 78%

    Day after tomorrow, 13 December, Friday

    Time Temperature Precipitation Wind Pressure Humidity
    00:00 -2°C° 0 mm 5 mps 750 mmHg 81%
    01:00 -2°C° 0 mm 5 mps 749 mmHg 83%
    02:00 -2°C° 0 mm 5 mps 748 mmHg 85%
    03:00 -2°C° 0 mm 5 mps 748 mmHg 86%
    04:00 -2°C° 0 mm 5 mps 748 mmHg 87%
    05:00 -2°C° 0 mm 5 mps 748 mmHg 88%
    06:00 -2°C° 0 mm 4 mps 748 mmHg 89%
    07:00 -1°C° 0 mm 5 mps 748 mmHg 86%
    08:00 -1°C° 0 mm 5 mps 747 mmHg 84%
    09:00 -1°C° 0 mm 5 mps 747 mmHg 82%
    10:00 0°C° 0 mm 4 mps 747 mmHg 80%
    11:00 +1°C° 0 mm 4 mps 746 mmHg 77%
    12:00 +3°C° 0 mm 4 mps 746 mmHg 74%
    13:00 +2°C° 0 mm 3 mps 745 mmHg 77%
    14:00 +2°C° 0 mm 3 mps 744 mmHg 80%
    15:00 +3°C° 0 mm 2 mps 743 mmHg 82%
    16:00 +3°C° 0 mm 2 mps 743 mmHg 85%
    17:00 +2°C° 0 mm 2 mps 743 mmHg 87%
    18:00 +2°C° 0 mm 2 mps 743 mmHg 89%
    19:00 +2°C° 0 mm 2 mps 742 mmHg 91%
    20:00 +1°C° 0 mm 2 mps 742 mmHg 92%
    21:00 +2°C° 0 mm 1 mps 741 mmHg 93%
    22:00 +2°C° 0 mm 1 mps 740 mmHg 93%
    23:00 +2°C° 0 mm 1 mps 740 mmHg 94%

    14 December, Saturday

    Time Temperature Precipitation Wind Pressure Humidity
    00:00 +1°C° 0 mm 0 mps 739 mmHg 95%
    01:00 +2°C° 0 mm 1 mps 739 mmHg 95%
    02:00 +2°C° 0 mm 1 mps 738 mmHg 96%
    03:00 +2°C° 0 mm 1 mps 737 mmHg 96%
    04:00 +2°C° 0 mm 1 mps 737 mmHg 96%
    05:00 +2°C° 0 mm 1 mps 736 mmHg 96%
    06:00 +2°C° 0 mm 1 mps 736 mmHg 96%
    07:00 +2°C° 0 mm 1 mps 736 mmHg 95%
    08:00 +2°C° 0 mm 2 mps 735 mmHg 94%
    09:00 +2°C° 0 mm 2 mps 735 mmHg 93%
    10:00 +2°C° 0 mm 2 mps 734 mmHg 92%
    11:00 +2°C° 0 mm 2 mps 734 mmHg 91%
    12:00 +3°C° 0 mm 2 mps 733 mmHg 90%
    13:00 +3°C° 0 mm 2 mps 733 mmHg 89%
    14:00 +3°C° 0 mm 2 mps 733 mmHg 87%
    15:00 +3°C° 0 mm 2 mps 733 mmHg 86%
    16:00 +3°C° 0 mm 2 mps 733 mmHg 85%
    17:00 +2°C° 0 mm 2 mps 734 mmHg 84%
    18:00 +1°C° 0 mm 3 mps 734 mmHg 84%
    19:00 +1°C° 0 mm 3 mps 734 mmHg 86%
    20:00 +1°C° 0 mm 3 mps 734 mmHg 89%
    21:00 0°C° 0 mm 3 mps 735 mmHg 91%
    22:00 0°C° 0.2 mm 3 mps 735 mmHg 93%
    23:00 0°C° 0.2 mm 3 mps 736 mmHg 95%

    15 December, Sunday

    Time Temperature Precipitation Wind Pressure Humidity
    00:00 0°C° 0.2 mm 3 mps 736 mmHg 96%
    01:00 -1°C° 0.1 mm 5 mps 737 mmHg 92%
    02:00 -3°C° 0.1 mm 6 mps 737 mmHg 88%
    03:00 -3°C° 0.1 mm 7 mps 738 mmHg 83%
    04:00 -4°C° 0 mm 7 mps 738 mmHg 80%
    05:00 -4°C° 0 mm 7 mps 739 mmHg 78%
    06:00 -4°C° 0 mm 7 mps 740 mmHg 75%
    07:00 -4°C° 0 mm 7 mps 741 mmHg 73%
    08:00 -4°C° 0 mm 7 mps 742 mmHg 72%
    09:00 -4°C° 0 mm 6 mps 744 mmHg 70%
    10:00 -3°C° 0 mm 6 mps 744 mmHg 68%
    11:00 -3°C° 0 mm 6 mps 744 mmHg 65%
    12:00 -3°C° 0 mm 6 mps 745 mmHg 62%
    13:00 -2°C° 0 mm 5 mps 745 mmHg 62%
    14:00 -2°C° 0 mm 5 mps 745 mmHg 62%
    15:00 -3°C° 0 mm 4 mps 746 mmHg 63%
    16:00 -3°C° 0 mm 4 mps 746 mmHg 65%
    17:00 -4°C° 0 mm 3 mps 747 mmHg 67%
    18:00 -4°C° 0 mm 3 mps 748 mmHg 70%
    19:00 -3°C° 0 mm 2 mps 748 mmHg 70%
    20:00 -3°C° 0 mm 2 mps 748 mmHg 70%
    21:00 -3°C° 0 mm 2 mps 749 mmHg 70%
    22:00 -1°C° 0 mm 1 mps 749 mmHg 68%
    23:00 -1°C° 0 mm 1 mps 749 mmHg 67%

    16 December, Monday

    Time Temperature Precipitation Wind Pressure Humidity
    00:00 -1°C° 0 mm 1 mps 749 mmHg 66%
    01:00 -1°C° 0 mm 1 mps 749 mmHg 66%
    02:00 -2°C° 0 mm 0 mps 749 mmHg 66%
    03:00 -2°C° 0 mm 0 mps 749 mmHg 66%
    04:00 -2°C° 0 mm 0 mps 749 mmHg 66%
    05:00 -1°C° 0 mm 1 mps 749 mmHg 67%
    06:00 -3°C° 0 mm 2 mps 749 mmHg 67%
    07:00 -3°C° 0 mm 2 mps 749 mmHg 69%
    08:00 -2°C° 0 mm 3 mps 749 mmHg 71%
    09:00 -2°C° 0 mm 3 mps 749 mmHg 72%
    10:00 -3°C° 0 mm 4 mps 748 mmHg 74%
    11:00 -2°C° 0 mm 4 mps 747 mmHg 77%
    12:00 -2°C° 0 mm 4 mps 746 mmHg 79%
    13:00 -2°C° 0.4 mm 5 mps 745 mmHg 84%
    14:00 -3°C° 0.4 mm 6 mps 744 mmHg 89%
    15:00 -3°C° 0.4 mm 6 mps 743 mmHg 95%
    16:00 -3°C° 1 mm 7 mps 742 mmHg 95%
    17:00 -3°C° 1 mm 7 mps 741 mmHg 96%
    18:00 -4°C° 1 mm 8 mps 739 mmHg 97%
    19:00 -3°C° 2 mm 7 mps 738 mmHg 97%
    20:00 -2°C° 2 mm 6 mps 737 mmHg 98%
    21:00 -1°C° 2 mm 5 mps 735 mmHg 98%
    22:00 -1°C° 0.9 mm 4 mps 735 mmHg 98%
    23:00 0°C° 0.9 mm 3 mps 734 mmHg 99%
    Show more